Zurück zum Katalog

FLOCK 4G 36

AktivWissenschaftSSO
NORAD 62675·PAYLOAD·🇺🇸 United States

Gestartet Jan 14, 2025 von Vandenberg Space Force Base

Loading…

Nächste Überflüge (nächste 24 Stunden)

TLE

AktuellSource: CelesTrak SupGP

Epoche: Sep 14, 2026, 18:45 UTC

1 62675C 25009BU  26257.78146991  .00004816  00000+0  16147-3 0  2576
2 62675  97.3962 339.1694 0004480  23.1657 131.5011 15.30955540    19

Verfolge FLOCK 4G 36 in Echtzeit mit AllMySat

Download on the App Store